Location: ?????????
(38.0736°N, 23.2119°E)
Time: 07:24:48
(UTC+00:00)

ADEOS - Visible Passes

Search period start: 13 July 2024 00:00
Search period end: 23 July 2024 00:00
Orbit: 790 x 793 km, 98.9° (Epoch: 13 July)

Date Brightness Start Highest point End Pass type
(mag) Time Alt. Az. Time Alt. Az. Time Alt. Az.
14 Jul 6.1 18:50:58 10° SW 18:54:19 17° W 18:57:42 10° NW visible
15 Jul 5.3 18:20:28 10° SSW 18:25:06 33° W 18:29:47 10° NW visible
17 Jul 6.3 19:04:38 10° WSW 19:06:57 13° W 19:09:16 10° WNW visible
18 Jul 5.7 18:33:26 10° SSW 18:37:40 25° W 18:41:57 10° NW visible
21 Jul 6.1 18:46:36 10° SW 18:50:17 19° W 18:53:58 10° NW visible
22 Jul 5.1 18:16:18 10° SSW 18:21:04 37° W 18:25:53 10° NNW visible
